STARLINK-1465 (45731 NORAD) Tracking and Keplerian Element Data

This shows tracking and keplerian element data for the satellite.

Feedback or suggestion? Click here.




ElementValue
Catalog45731
NameSTARLINK-1465
Epoch Orbit534
Epoch Day192.16668981
Epoch Year2020
RAAN166.223
Inclination53.0027
Eccentricity0.0001322
Argument of Perigee95.2991
Mean Anonmoly91.142
Mean Motion15.44300468
Decay Rate-0.01177458
L11 45731U 20038B 20192.16668981 -.01177458 00000-0 -27609-1 0 9992
L22 45731 53.0027 166.2230 0001322 95.2991 91.1420 15.44300468 5346

Live tracking and technical data element details for STARLINK-1465 (NORAD 45731). STARLINK-1465 can be tracked NOW for your location showing map with azimuth and elevation plus other details from your city location.

Track the satellite on the map from your city or location and see movement details for azimuth, elevation, latitude, longitude, range, height, and movement on the map or in text.







IsCatalogInMostPopularTable: catalog: 45731, numindb: 4
Update: records affected: 1



GetName: 45731 STARLINK-1465

Hit Count: updated at: Fri, 10 Jul 2020 16:12:12 GMT